Showing default

HULIANWANG DIGUI-181, 100206

Orbit data source: Space-Track

HULIANWANG DIGUI-181, 100206 is a payload satellite owned by Zhongguo Xingwang (CN) in LEO that was launched on Tue, 04 Aug 2026 UTC launched from the Wenchang Satellite Launch Center (WSC). Payload-class satellites include a variety of spacecraft equipped with specific instruments for various scientific and technological missions. These include communications satellites like Starlink; space stations such as the ISS; scientific satellites like the Hubble; Earth observation satellites from companies like Planet Labs, Umbra, and HawkEye 360; GPS; miniature CubeSats for education and research; and military/defense satellites.

Loading next visibility...
Identifier
100206, 2026-176D
Orbit
LEO
Country
Flag of CNCN / PRC
Related business
Manufacturer
CAST?
Mission
Operational spacecraft
Bus & Motor
XINGWANG C, Unknown motor
Mass
~700 kg wet, ~700 kg dry
Launch date (UTC)
2026-08-04 (2 months ago)
Launch vehicle
Unknown
Launch site
Wenchang Satellite Launch Center (WSC)
Object type
Payload
Rocket body
Debris
Shape & HBR
BOX + 2 PAN, 14.5 m
Radar Cross Section
Large (>1 m²)

Expand to show TLE details & history
Last TLE update: 19 hours ago

TLE from 19 hours ago
0 HULIANWANG DIGUI-181
1 A0206U 26176D   26263.31886285 -.00000081  00000-0  93721-4 0  9996
2 A0206  49.9914 224.6797 0000342  23.6132 336.4756 13.29329209  6278
Epoch: 2026-09-20T07:39Z
TLE epoch observation values (Epoch: 2026-09-20T07:39:09.750Z)
Latitude
0.00002°
Longitude
110.67434°
Altitude
1,149.564 km
Speed
7.279 km/s
True Right ascension
14h 58m 43s
True Declination
0° 00' 00"
Sunlit
Object was in daylight at epoch
Visualization orbit readout
Latitude
Unknown
Longitude
Unknown
Altitude
Unknown
Speed
Unknown
Apparent Right ascension
Unknown
Apparent Declination
Unknown
Sunlit
N/A
Visualization observer readout
Local Sidereal Time
19:11:02
Azimuth
Unknown
Elevation
Unknown
Doppler factor
Unknown
Orbital elements
Apogee altitude
1,150.259 km
Perigee altitude
1,149.744 km
Semi-major axis
7,528.138 km
Eccentricity
0.00003
Inclination
49.9914°
RAAN
224.6797°
Arg. of periapsis
23.6132°
True anomaly
336.47404°
Mean anomaly
336.4756°
Eccentric anomaly
336.47482°
Mean motion
3.32286 °/min
Orbital period
108.34 mins
BSTAR
0.000093721
Loading maneuver chart data...
Computing Atmospheric mass density...
Loading historical data...
Loading historical data...
Loading historical data...
Loading historical data...
Loading historical data...
Loading historical data...
Loading historical data...

Documentation

Showing up to 5 results
|